Home   Weather   New York   Past weeks
Flag for USA

Past Weather in New York, New York, USA — July 2017

Now
32 °F

Sunny.


Feels Like: N/A
Forecast: 31 / 37 °F
Wind: N/A

Location: New York City - Central Park

Current Time: Dec 18, 2018 at 10:54:48 am

Latest Report: Dec 18, 2018 at 9:51 am


Visibility: 10 mi

Pressure: 30.02 "Hg

Humidity: 45%

Dew Point: 13 °F

Location of New YorkLocation

July 2017 Weather in New York — Graph

°F

High & Low Weather Summary for July 2017

 TemperatureHumidityPressure
High93 °F (Jul 20, 1:51 pm)97% (Jul 2, 2:51 am)30.26 "Hg (Jul 2, 2:51 am)
Low63 °F (Jul 24, 12:27 pm)32% (Jul 22, 2:51 pm)29.72 "Hg (Jul 7, 6:51 pm)
Average76 °F69%29.96 "Hg
* Reported Jul 1 12:51 am — Jul 31 11:51 pm, New York. Weather by CustomWeather, © 2018

Note: Actual official high and low records may vary slightly from our data, if they occured in-between our weather recording intervals... More about our weather records

Advertising

New York Weather History for July 1, 2017

Scroll right to see more
 ConditionsComfort  
Time TempWeatherWind HumidityBarometerVisibility
12:51 am
Sat, Jul 1
78 °FClear.6 mph69%29.96 "Hg10 mi
1:51 am78 °FClear.No wind71%29.95 "Hg10 mi
2:51 am77 °FClear.3 mph74%29.94 "Hg10 mi
3:51 am76 °FClear.6 mph77%29.93 "Hg10 mi
4:51 am76 °FClear.3 mph77%29.93 "Hg10 mi
5:51 am76 °FSunny.No wind80%29.95 "Hg10 mi
6:51 am77 °FScattered clouds.7 mph79%29.96 "Hg10 mi
7:51 am78 °FScattered clouds.3 mph79%29.97 "Hg10 mi
8:18 am78 °FPartly sunny.3 mph79%30.00 "Hg10 mi
9:07 am79 °FScattered clouds.3 mph74%29.99 "Hg10 mi
9:15 am79 °FPartly sunny.5 mph74%29.99 "Hg10 mi
9:30 am79 °FScattered clouds.6 mph74%29.98 "Hg10 mi
9:51 am79 °FScattered clouds.3 mph77%29.94 "Hg10 mi
10:11 am79 °FPartly sunny.3 mph77%29.97 "Hg10 mi
10:51 am79 °FMostly cloudy.7 mph79%29.94 "Hg10 mi
11:51 am82 °FPartly sunny.7 mph70%29.92 "Hg10 mi
12:51 pm81 °FCloudy.5 mph74%29.91 "Hg10 mi
1:51 pm85 °FPartly sunny.5 mph65%29.89 "Hg10 mi
3:06 pm77 °FLight rain. Mostly cloudy.7 mph82%29.92 "Hg2 mi
3:20 pm76 °FLight rain. Fog.3 mph94%29.92 "Hg3 mi
3:51 pm79 °FBroken clouds.N/A90%29.87 "Hg10 mi
4:51 pm79 °FSunny.6 mph84%29.85 "Hg10 mi
5:51 pm79 °FSunny.No wind82%29.85 "Hg10 mi
6:51 pm79 °FScattered clouds.5 mph79%29.86 "Hg10 mi
7:14 pm78 °FRain. Broken clouds.10 mph82%29.90 "Hg1 mi
7:31 pm73 °FLight rain. Fog.7 mph94%29.91 "Hg6 mi
7:51 pm72 °FLight rain. Fog.8 mph93%29.90 "Hg4 mi
8:51 pm72 °FClear.3 mph93%29.88 "Hg10 mi
9:51 pm71 °FClear.3 mph93%29.88 "Hg10 mi
10:51 pm71 °FPassing clouds.N/A96%29.91 "Hg10 mi
11:51 pm72 °FOvercast.N/A93%29.91 "Hg9 mi
Weather by CustomWeather, © 2018

See weather overview